Location: Pinawa
(50.1500°N, 95.8830°W)
Time: 23:31:14
(UTC-05:00)

Amateur Radio Satellites - All Passes

Search period start: 25 June 2016 23:01
Search period end: 26 June 2016 23:01
Location: Pinawa, 50.1500°N, 95.8830°W

Satellite Date Start Highest point End Downlink Frequencies (MHz)
Time Altitude Azimuth
AISAT 25 Jun 23:18:17 23:22:13 32° 65° (ENE) 23:26:09 437.250
TIGRISAT 25 Jun 23:26:31 23:30:52 40° 98° (E) 23:35:16 435.000
50 SAT 25 Jun 23:26:45 23:30:09 34° 68° (ENE) 23:33:34 437.505
UNISAT 6 25 Jun 23:30:30 23:34:57 46° 99° (E) 23:39:26 437.425
DELFI C3 25 Jun 23:33:04 23:35:27 15° 271° (W) 23:37:51 145.870
UKube-1 25 Jun 23:35:52 23:39:40 31° 65° (ENE) 23:43:28 .
RS-15 25 Jun 23:40:38 23:51:09 36° 254° (WSW) 00:01:39 29.354- 29.394
PRISM 25 Jun 23:40:42 23:43:08 15° 302° (WNW) 23:45:33 437.425
SPROUT 25 Jun 23:43:53 23:47:22 25° 63° (ENE) 23:50:51 437.525
SO-50 25 Jun 23:47:14 23:51:04 23° 26° (NNE) 23:54:49 436.795
DX 1 25 Jun 23:49:18 23:53:29 48° 69° (ENE) 23:57:41 434.975-435.025
Cosmos 2504 26 Jun 00:01:58 00:08:16 21° 51° (NE) 00:14:27 435.465 / 435.565
HUMSAT D 26 Jun 00:03:00 00:05:38 16° 271° (W) 00:08:17 437.325/437.525
Cosmos 2491 26 Jun 00:06:55 00:12:53 21° 74° (ENE) 00:18:50 435.465 / 435.565
ANTELSAT 26 Jun 00:10:24 00:15:01 78° 286° (WNW) 00:19:41 437.575/2403.000
AO-85 26 Jun 00:10:31 00:15:53 68° 314° (NW) 00:21:01 145.980
VELOX 1 26 Jun 00:13:35 00:18:01 82° 257° (WSW) 00:22:27 145.980
CUBEBUG 1 26 Jun 00:13:56 00:18:18 77° 258° (WSW) 00:22:40 437.445
BUGSAT 1 26 Jun 00:21:29 00:23:10 12° 88° (E) 00:24:50 437.445
NANOSAT C BR1 26 Jun 00:24:13 00:27:55 28° 95° (E) 00:31:37 145.865
QB50P1 26 Jun 00:25:18 00:29:06 30° 96° (E) 00:32:52 145.935-145.965
POPSAT HIP 1 26 Jun 00:28:11 00:32:01 32° 96° (E) 00:35:51 437.405
ESTCUBE 1 26 Jun 00:37:33 00:41:41 34° 264° (W) 00:45:52 437.505/2401.250
QB50P2 26 Jun 00:39:32 00:43:38 44° 99° (E) 00:47:43 145.880/145.840
POLYITAN 1 26 Jun 00:42:08 00:46:15 45° 99° (E) 00:50:22 437.675
YUBILEINY 26 Jun 00:45:58 00:54:50 76° 77° (ENE) 01:03:42 435.215
DUCHIFAT 1 26 Jun 00:46:07 00:50:11 44° 99° (E) 00:54:14 145.980
AISAT 26 Jun 00:54:43 00:58:41 32° 264° (W) 01:02:40 437.250
50 SAT 26 Jun 01:00:58 01:03:56 22° 266° (W) 01:06:55 437.505
TIGRISAT 26 Jun 01:03:29 01:07:26 29° 296° (WNW) 01:11:26 435.000
UNISAT 6 26 Jun 01:07:40 01:11:27 26° 297° (WNW) 01:15:18 437.425
UKube-1 26 Jun 01:11:45 01:15:40 33° 263° (W) 01:19:37 .
TISAT 1 26 Jun 01:14:56 01:19:00 55° 71° (ENE) 01:23:06 437.305
SPROUT 26 Jun 01:19:08 01:23:09 40° 262° (W) 01:27:11 437.525
DX 1 26 Jun 01:26:37 01:29:57 21° 268° (W) 01:33:17 434.975-435.025
SO-50 26 Jun 01:27:30 01:32:16 82° 49° (NE) 01:36:51 436.795
ANTELSAT 26 Jun 01:48:52 01:51:01 13° 305° (NW) 01:53:09 437.575/2403.000
SWISSCUBE 26 Jun 01:49:58 01:54:17 34° 64° (ENE) 01:58:37 437.505
AO-85 26 Jun 01:53:05 01:57:14 23° 335° (NNW) 02:01:12 145.980
VELOX 1 26 Jun 01:54:18 01:55:12 11° 274° (W) 01:56:08 145.980
Cosmos 2504 26 Jun 01:54:38 02:03:34 69° 76° (ENE) 02:12:15 435.465 / 435.565
BUGSAT 1 26 Jun 01:55:00 01:59:04 77° 286° (WNW) 02:03:10 437.445
JAS-2 26 Jun 01:56:38 02:02:28 53° 99° (E) 02:07:44 435.910
Cosmos 2491 26 Jun 01:59:36 02:08:23 82° 97° (E) 02:17:10 435.465 / 435.565
NANOSAT C BR1 26 Jun 01:59:51 02:03:41 34° 294° (WNW) 02:07:32 145.865
QB50P1 26 Jun 02:01:05 02:04:53 32° 294° (WNW) 02:08:40 145.935-145.965
POPSAT HIP 1 26 Jun 02:04:02 02:07:47 31° 294° (WNW) 02:11:31 437.405
Gurwin Techsat 1B 26 Jun 02:13:35 02:16:37 15° 87° (E) 02:19:38 435.225
ITUPSAT 1 26 Jun 02:14:14 02:18:51 49° 68° (ENE) 02:23:30 437.325
BEESAT 26 Jun 02:15:14 02:19:52 51° 69° (ENE) 02:24:30 436.000
QB50P2 26 Jun 02:15:49 02:19:13 24° 297° (WNW) 02:22:36 145.880/145.840
POLYITAN 1 26 Jun 02:18:27 02:21:50 23° 298° (WNW) 02:25:13 437.675
Oscar 19 26 Jun 02:19:57 02:24:36 34° 96° (E) 02:29:14 437.125/150
DUCHIFAT 1 26 Jun 02:22:18 02:25:40 23° 297° (WNW) 02:29:02 145.980
YUBILEINY 26 Jun 02:43:38 02:50:50 29° 280° (W) 02:58:02 435.215
TISAT 1 26 Jun 02:52:14 02:55:01 17° 270° (W) 02:57:49 437.305
STARS 26 Jun 02:59:37 03:01:20 12° 54° (NE) 03:03:02 437.465
SO-50 26 Jun 03:09:08 03:12:08 17° 249° (WSW) 03:15:04 436.795
MOZHAYETS 4 26 Jun 03:21:38 03:25:35 29° 64° (ENE) 03:29:34
SWISSCUBE 26 Jun 03:27:39 03:32:03 36° 263° (W) 03:36:30 437.505
BUGSAT 1 26 Jun 03:32:43 03:33:46 11° 305° (NW) 03:34:48 437.445
BEESAT 3 26 Jun 03:35:53 03:38:46 20° 115° (ESE) 03:41:40 437.485
AO-85 26 Jun 03:36:38 03:39:27 15° 359° (N) 03:42:11 145.980
AIST 1 26 Jun 03:39:36 03:41:33 13° 61° (ENE) 03:43:28
O/OREOS (USA 219) 26 Jun 03:40:26 03:44:20 30° 106° (ESE) 03:48:15 437.305
JAS-2 26 Jun 03:42:09 03:47:16 30° 302° (WNW) 03:51:57 435.910
PCSat 26 Jun 03:44:30 03:49:46 56° 119° (ESE) 03:55:05 145.827
Cosmos 2504 26 Jun 03:48:42 03:56:22 34° 278° (W) 04:03:51 435.465 / 435.565
Gurwin Techsat 1B 26 Jun 03:51:58 03:57:20 90° 78° (ENE) 04:02:40 435.225
KKS-1 26 Jun 03:52:25 03:56:46 59° 71° (ENE) 04:01:09 437.445
ITUPSAT 1 26 Jun 03:53:00 03:56:57 25° 267° (W) 04:00:55 437.325
BEESAT 26 Jun 03:54:04 03:57:55 24° 267° (W) 04:01:48 436.000
Cosmos 2491 26 Jun 03:59:01 04:06:20 29° 301° (WNW) 04:13:40 435.465 / 435.565
Oscar 19 26 Jun 03:59:14 04:04:00 40° 295° (WNW) 04:08:44 437.125/150
BEESAT 2 26 Jun 04:07:30 04:10:40 23° 116° (ESE) 04:13:52 435.950
ITAMSAT 1 26 Jun 04:14:49 04:20:00 58° 101° (ESE) 04:25:09 435.822/435.867
STARS 26 Jun 04:32:36 04:36:58 77° 72° (ENE) 04:41:21 437.465
CUBESAT XI-V 26 Jun 04:41:27 04:45:14 25° 62° (ENE) 04:49:02 437.345
AO-7 26 Jun 04:43:44 04:51:41 44° 99° (E) 04:59:35 29.400- 29.500
GONETS M04 26 Jun 04:46:45 04:53:47 26° 57° (ENE) 05:00:47
Cosmos 2499 26 Jun 04:47:08 04:53:15 20° 50° (NE) 04:59:13 435.465 / 435.565
MOZHAYETS 4 26 Jun 04:58:14 05:02:37 41° 263° (W) 05:07:02
HORYU 2 26 Jun 05:05:47 05:07:58 13° 88° (E) 05:10:07 437.375
BEESAT 3 26 Jun 05:12:14 05:16:07 57° 314° (NW) 05:20:03 437.485
AIST 1 26 Jun 05:15:31 05:19:48 84° 260° (W) 05:24:03
AO-85 26 Jun 05:17:57 05:21:43 21° 24° (NNE) 05:25:14 145.980
O/OREOS (USA 219) 26 Jun 05:19:25 05:23:38 38° 306° (NW) 05:27:52 437.305
PCSat 26 Jun 05:28:28 05:33:27 35° 320° (NW) 05:38:27 145.827
KKS-1 26 Jun 05:30:41 05:33:44 18° 269° (W) 05:36:48 437.445
Gurwin Techsat 1B 26 Jun 05:33:06 05:36:36 18° 306° (NW) 05:40:06 435.225
BEESAT 2 26 Jun 05:44:23 05:48:16 50° 316° (NW) 05:52:11 435.950
ITAMSAT 1 26 Jun 05:54:52 05:59:09 26° 301° (WNW) 06:03:25 435.822/435.867
AIST 2 26 Jun 06:03:10 06:06:25 23° 116° (ESE) 06:09:42 435.215
STARS 26 Jun 06:11:41 06:13:53 14° 272° (W) 06:16:05 437.465
CUBESAT XI-V 26 Jun 06:17:47 06:22:21 50° 261° (W) 06:26:57 437.345
STRAND 1 26 Jun 06:30:04 06:34:21 27° 60° (ENE) 06:38:38 437.568
CUTE-I 26 Jun 06:35:11 06:38:46 18° 88° (E) 06:42:19 437.470
AO-7 26 Jun 06:36:35 06:44:41 55° 300° (WNW) 06:52:45 29.400- 29.500
Cosmos 2499 26 Jun 06:39:30 06:48:24 67° 75° (ENE) 06:56:52 435.465 / 435.565
HORYU 2 26 Jun 06:40:37 06:45:08 83° 285° (WNW) 06:49:38 437.375
GONETS M04 26 Jun 06:43:07 06:51:53 89° 266° (W) 07:00:39
BEESAT 3 26 Jun 06:52:09 06:54:37 16° 336° (NNW) 06:57:05 437.485
AO-85 26 Jun 06:58:17 07:03:02 72° 47° (NE) 07:07:20 145.980
NOAA 18 26 Jun 07:10:30 07:15:36 36° 97° (E) 07:20:40 137.9125
NOAA 15 26 Jun 07:11:53 07:16:56 44° 99° (E) 07:21:56 137.62
PCSat 26 Jun 07:15:21 07:18:30 15° 345° (NNW) 07:21:38 145.827
BEESAT 2 26 Jun 07:24:39 07:27:01 15° 338° (NNW) 07:29:21 435.950
PRISM 26 Jun 07:25:06 07:27:08 13° 56° (ENE) 07:29:10 437.425
BRITE-PL 26 Jun 07:30:14 07:34:26 62° 101° (E) 07:38:32 437.365/2234.400
Cubesat XI-IV 26 Jun 07:38:45 07:44:04 55° 101° (E) 07:49:21 437.490
AIST 2 26 Jun 07:40:34 07:44:37 54° 315° (NW) 07:48:43 435.215
LilacSat-2 26 Jun 07:44:42 07:48:35 67° 103° (ESE) 07:52:26 437.200
DANDE 26 Jun 07:49:42 07:56:00 24° 82° (E) 08:01:57 436.750
CUSAT 1 26 Jun 07:52:07 07:59:09 40° 92° (E) 08:05:14 437.405
DOVE 4 26 Jun 07:54:42 07:58:18 26° 94° (E) 08:02:00 437.250
STRAND 1 26 Jun 08:08:13 08:13:14 54° 260° (W) 08:18:19 437.568
CUTE-I 26 Jun 08:14:03 08:19:28 80° 288° (WNW) 08:24:51 437.470
GOMX 1 26 Jun 08:18:00 08:22:11 88° 94° (E) 08:26:27 467.674
HORYU 2 26 Jun 08:18:48 08:21:00 14° 305° (NW) 08:23:11 437.375
AO-7 26 Jun 08:30:26 08:35:45 19° 324° (NW) 08:41:03 29.400- 29.500
Cosmos 2499 26 Jun 08:33:18 08:40:57 35° 278° (W) 08:48:21 435.465 / 435.565
AO-85 26 Jun 08:39:48 08:42:54 18° 249° (WSW) 08:45:50 145.980
GONETS M04 26 Jun 08:41:13 08:47:32 23° 284° (WNW) 08:53:52
NOAA 18 26 Jun 08:51:08 08:56:21 43° 296° (WNW) 09:01:33 137.9125
NOAA 15 26 Jun 08:51:57 08:56:35 32° 298° (WNW) 09:01:12 137.62
AAUSAT CUBESAT 2 26 Jun 08:56:20 08:58:28 14° 88° (E) 09:00:35 437.432
PRISM 26 Jun 08:57:41 09:01:51 86° 258° (WSW) 09:06:02 437.425
HO-68 26 Jun 08:58:10 09:04:52 40° 96° (E) 09:11:32 435.675
UNISAT 6 26 Jun 09:01:07 09:02:10 11° 53° (NE) 09:03:13 437.425
PCSat 26 Jun 09:01:18 09:04:14 14° 12° (NNE) 09:07:10 145.827
BRITE-PL 26 Jun 09:09:50 09:12:30 17° 301° (WNW) 09:15:08 437.365/2234.400
CINEMA 3 26 Jun 09:09:56 09:14:14 47° 99° (E) 09:18:42 145.822/145.860
CANX-2 26 Jun 09:13:53 09:18:06 50° 99° (E) 09:22:16 2200.000
Cubesat XI-IV 26 Jun 09:19:21 09:23:52 28° 300° (WNW) 09:28:22 437.490
LilacSat-2 26 Jun 09:20:17 09:22:24 14° 300° (WNW) 09:24:34 437.200
AIST 2 26 Jun 09:21:21 09:23:59 16° 337° (NNW) 09:26:38 435.215
CUBEBUG 2 26 Jun 09:25:41 09:29:26 25° 93° (E) 09:33:15 437.445
COMPASS 1 26 Jun 09:26:28 09:30:17 32° 95° (E) 09:34:03 437.405
DANDE 26 Jun 09:29:37 09:38:05 88° 101° (E) 09:45:51 436.750
DOVE 4 26 Jun 09:32:14 09:36:08 37° 292° (WNW) 09:40:10 437.250
CUSAT 1 26 Jun 09:33:40 09:41:11 53° 288° (WNW) 09:47:30 437.405
CUTE 1.7 + AOD 2 26 Jun 09:34:23 09:38:42 72° 102° (ESE) 09:42:59 437.475
M-CUBED/EXP-1 PRIME 26 Jun 09:37:18 09:39:36 15° 98° (E) 09:41:59 437.505
ANTELSAT 26 Jun 09:38:18 09:41:38 22° 61° (ENE) 09:45:02 437.575/2403.000
SEEDS 26 Jun 09:43:22 09:47:37 65° 101° (ESE) 09:51:49 437.485
CUTE-I 26 Jun 09:55:28 09:58:43 16° 307° (NW) 10:01:58 437.470
GOMX 1 26 Jun 09:57:54 09:59:43 13° 303° (WNW) 10:01:32 467.674
ZACube-1 26 Jun 10:03:48 10:07:41 28° 94° (E) 10:11:36 437.345
Cosmos 2491 26 Jun 10:08:43 10:13:23 15° 44° (NE) 10:18:02 435.465 / 435.565
BEESAT 3 26 Jun 10:10:45 10:13:14 16° 24° (NNE) 10:15:43 437.485
UWE-3 26 Jun 10:18:23 10:22:51 54° 100° (E) 10:27:22 435.000/436.395/437.385
Oscar 11 26 Jun 10:18:54 10:23:01 38° 97° (E) 10:27:06 145.826/435.025
PHONESAT 2.4 26 Jun 10:21:21 10:22:57 13° 173° (S) 10:24:32 2401.200-2431.200
FUNcube-1 26 Jun 10:22:40 10:26:55 39° 97° (E) 10:31:11 145.935
TIGRISAT 26 Jun 10:29:35 10:33:49 59° 71° (ENE) 10:38:09 435.000
AAUSAT CUBESAT 2 26 Jun 10:30:16 10:34:28 72° 286° (WNW) 10:38:37 437.432
JAS-2 26 Jun 10:32:16 10:35:14 13° 44° (NE) 10:38:07 435.910
AUBIESAT-1 26 Jun 10:33:40 10:37:21 47° 106° (ESE) 10:41:16 437.475
UNISAT 6 26 Jun 10:33:45 10:38:02 68° 72° (ENE) 10:42:26 437.425
PRISM 26 Jun 10:37:17 10:37:49 10° 273° (W) 10:38:22 437.425
BEESAT 2 26 Jun 10:43:13 10:45:57 17° 26° (NNE) 10:48:39 435.950
PCSat 26 Jun 10:44:37 10:49:26 30° 37° (NE) 10:54:13 145.827
HO-68 26 Jun 10:45:51 10:52:48 53° 297° (WNW) 10:59:44 435.675
CINEMA 3 26 Jun 10:47:37 10:51:11 24° 296° (WNW) 10:54:51 145.822/145.860
CANX-2 26 Jun 10:50:23 10:53:39 21° 298° (WNW) 10:56:54 2200.000
ISS 26 Jun 10:54:57 10:57:50 29° 147° (SSE) 11:00:43 145.825
CUBEBUG 2 26 Jun 11:01:56 11:06:15 45° 291° (WNW) 11:10:41 437.445
COMPASS 1 26 Jun 11:02:07 11:05:49 30° 294° (WNW) 11:09:28 437.405
AIST 2 26 Jun 11:03:09 11:04:10 11° 2° (N) 11:05:11 435.215
DELFI C3 26 Jun 11:04:01 11:07:59 52° 100° (E) 11:11:52 145.870
M-CUBED/EXP-1 PRIME 26 Jun 11:10:47 11:14:25 58° 294° (WNW) 11:18:21 437.505
CUTE 1.7 + AOD 2 26 Jun 11:11:23 11:14:03 16° 301° (WNW) 11:16:41 437.475
ANTELSAT 26 Jun 11:13:51 11:18:03 50° 261° (W) 11:22:21 437.575/2403.000
DANDE 26 Jun 11:14:49 11:21:45 28° 300° (WNW) 11:28:10 436.750
BUGSAT 1 26 Jun 11:15:25 11:18:01 17° 60° (ENE) 11:20:38 437.445
SEEDS 26 Jun 11:20:06 11:22:52 17° 300° (WNW) 11:25:38 437.485
NANOSAT C BR1 26 Jun 11:20:36 11:24:28 38° 68° (ENE) 11:28:22 145.865
CUSAT 1 26 Jun 11:21:16 11:24:31 13° 307° (NW) 11:27:31 437.405
QB50P1 26 Jun 11:21:59 11:25:55 41° 68° (ENE) 11:29:53 145.935-145.965
POPSAT HIP 1 26 Jun 11:24:54 11:28:52 43° 69° (ENE) 11:32:52 437.405
QB50P2 26 Jun 11:36:21 11:40:29 60° 72° (ENE) 11:44:39 145.880/145.840
POLYITAN 1 26 Jun 11:38:58 11:43:06 61° 72° (ENE) 11:47:16 437.675
HUMSAT D 26 Jun 11:39:37 11:43:55 61° 101° (E) 11:48:11 437.325/437.525
ZACube-1 26 Jun 11:39:52 11:44:05 40° 292° (WNW) 11:48:19 437.345
DUCHIFAT 1 26 Jun 11:42:12 11:46:17 58° 72° (ENE) 11:50:25 145.980
BEESAT 3 26 Jun 11:47:48 11:51:44 57° 46° (NE) 11:55:38 437.485
Oscar 11 26 Jun 11:55:20 11:59:02 27° 296° (WNW) 12:02:42 145.826/435.025
UWE-3 26 Jun 11:55:31 11:59:01 22° 298° (WNW) 12:02:34 435.000/436.395/437.385
PHONESAT 2.4 26 Jun 11:57:25 11:58:49 12° 190° (S) 12:00:11 2401.200-2431.200
RS-15 26 Jun 11:58:01 12:07:36 33° 104° (ESE) 12:17:34 29.354- 29.394
FUNcube-1 26 Jun 11:59:10 12:03:02 29° 295° (WNW) 12:06:57 145.935
CUBEBUG 1 26 Jun 11:59:11 12:01:32 14° 88° (E) 12:03:52 437.445
YUBILEINY 26 Jun 12:00:20 12:05:37 18° 72° (ENE) 12:10:55 435.215
VELOX 1 26 Jun 12:00:31 12:02:44 14° 88° (E) 12:04:57 145.980
Cosmos 2491 26 Jun 12:04:15 12:12:46 54° 71° (ENE) 12:21:14 435.465 / 435.565
Oscar 19 26 Jun 12:04:58 12:07:49 15° 53° (NE) 12:10:39 437.125/150
O/OREOS (USA 219) 26 Jun 12:06:19 12:09:51 22° 46° (NE) 12:13:21 437.305
TIGRISAT 26 Jun 12:08:03 12:10:56 17° 271° (W) 12:13:52 435.000
AAUSAT CUBESAT 2 26 Jun 12:08:21 12:09:11 11° 305° (NW) 12:10:01 437.432
AUBIESAT-1 26 Jun 12:08:49 12:11:39 21° 302° (WNW) 12:14:36 437.475
JAS-2 26 Jun 12:11:43 12:18:52 47° 65° (ENE) 12:25:22 435.910
AO-7 26 Jun 12:12:21 12:14:08 11° 19° (NNE) 12:15:55 29.400- 29.500
UNISAT 6 26 Jun 12:12:44 12:15:16 15° 272° (W) 12:17:51 437.425
BEESAT 2 26 Jun 12:20:30 12:24:29 68° 47° (NE) 12:28:29 435.950
50 SAT 26 Jun 12:24:57 12:27:57 23° 94° (E) 12:30:55 437.505
ESTCUBE 1 26 Jun 12:24:58 12:29:08 35° 97° (E) 12:33:16 437.505/2401.250
PCSat 26 Jun 12:27:52 12:33:17 69° 239° (WSW) 12:38:39 145.827
ISS 26 Jun 12:30:47 12:34:03 85° 344° (NNW) 12:37:20 145.825
HO-68 26 Jun 12:35:08 12:39:01 16° 319° (NW) 12:42:53 435.675
DELFI C3 26 Jun 12:39:42 12:42:30 18° 299° (WNW) 12:45:17 145.870
AISAT 26 Jun 12:39:45 12:43:44 33° 96° (E) 12:47:41 437.250
AIST 2 26 Jun 12:41:21 12:44:16 18° 26° (NNE) 12:47:11 435.215
BUGSAT 1 26 Jun 12:49:02 12:53:01 59° 259° (W) 12:57:00 437.445
Cosmos 2504 26 Jun 12:53:05 12:54:45 11° 64° (ENE) 12:56:26 435.465 / 435.565
UKube-1 26 Jun 12:53:56 12:57:40 28° 95° (E) 13:01:23 .
NANOSAT C BR1 26 Jun 12:56:52 13:00:20 25° 266° (W) 13:03:50 145.865
QB50P1 26 Jun 12:58:30 13:01:52 23° 267° (W) 13:05:16 145.935-145.965
SPROUT 26 Jun 13:00:28 13:04:00 24° 93° (E) 13:07:30 437.525
POPSAT HIP 1 26 Jun 13:01:34 13:04:52 22° 267° (W) 13:08:10 437.405
DX 1 26 Jun 13:08:45 13:12:57 47° 100° (E) 13:17:08 434.975-435.025
QB50P2 26 Jun 13:14:01 13:16:42 16° 270° (W) 13:19:23 145.880/145.840
HUMSAT D 26 Jun 13:16:08 13:19:08 19° 300° (WNW) 13:22:08 437.325/437.525
POLYITAN 1 26 Jun 13:16:43 13:19:20 16° 270° (W) 13:21:57 437.675
DUCHIFAT 1 26 Jun 13:19:42 13:22:22 16° 270° (W) 13:25:05 145.980
BEESAT 3 26 Jun 13:26:10 13:29:05 20° 245° (WSW) 13:32:00 437.485
CUBEBUG 1 26 Jun 13:34:01 13:38:20 72° 287° (WNW) 13:42:38 437.445
VELOX 1 26 Jun 13:35:22 13:39:47 78° 286° (WNW) 13:44:10 145.980
Gurwin Techsat 1B 26 Jun 13:38:32 13:43:23 38° 64° (ENE) 13:48:16 435.225
Oscar 19 26 Jun 13:41:11 13:46:20 77° 73° (ENE) 13:51:30 437.125/150
O/OREOS (USA 219) 26 Jun 13:45:13 13:49:40 62° 246° (WSW) 13:54:05 437.305
YUBILEINY 26 Jun 13:52:10 14:00:49 73° 95° (E) 14:09:34 435.215
JAS-2 26 Jun 13:56:36 14:03:54 46° 263° (W) 14:10:36 435.910
AO-7 26 Jun 13:57:29 14:04:06 27° 45° (NE) 14:10:44 29.400- 29.500
50 SAT 26 Jun 13:58:20 14:01:43 33° 292° (WNW) 14:05:03 437.505
BEESAT 2 26 Jun 13:59:16 14:01:54 17° 246° (WSW) 14:04:31 435.950
ITAMSAT 1 26 Jun 13:59:28 14:03:37 25° 59° (ENE) 14:07:48 435.822/435.867
Cosmos 2491 26 Jun 14:01:28 14:09:28 43° 274° (W) 14:17:26 435.465 / 435.565
ESTCUBE 1 26 Jun 14:01:55 14:05:53 31° 295° (WNW) 14:09:50 437.505/2401.250
RS-15 26 Jun 14:07:05 14:18:40 88° 309° (NW) 14:30:56 29.354- 29.394
ISS 26 Jun 14:07:22 14:10:39 67° 6° (N) 14:13:55 145.825
PCSat 26 Jun 14:13:38 14:15:41 12° 258° (WSW) 14:17:44 145.827
AISAT 26 Jun 14:16:18 14:20:12 32° 295° (WNW) 14:24:05 437.250
AIST 2 26 Jun 14:19:20 14:23:30 68° 47° (NE) 14:27:39 435.215
TISAT 1 26 Jun 14:29:36 14:33:43 52° 101° (E) 14:37:50 437.305
UKube-1 26 Jun 14:29:50 14:33:48 36° 294° (WNW) 14:37:45 .
SPROUT 26 Jun 14:36:05 14:40:06 41° 292° (WNW) 14:44:07 437.525
Cosmos 2504 26 Jun 14:38:03 14:45:47 50° 88° (E) 14:54:03 435.465 / 435.565
DX 1 26 Jun 14:45:28 14:48:54 23° 298° (WNW) 14:52:19 434.975-435.025
CUBEBUG 1 26 Jun 15:12:35 15:13:51 11° 306° (NW) 15:15:07 437.445
VELOX 1 26 Jun 15:13:45 15:15:30 12° 306° (NW) 15:17:17 145.980
Gurwin Techsat 1B 26 Jun 15:18:25 15:23:21 38° 263° (W) 15:28:19 435.225
SWISSCUBE 26 Jun 15:22:38 15:27:12 41° 98° (E) 15:31:43 437.505
Oscar 19 26 Jun 15:22:55 15:26:17 17° 272° (W) 15:29:38 437.125/150
ITAMSAT 1 26 Jun 15:37:34 15:42:44 61° 258° (WSW) 15:47:56 435.822/435.867
ISS 26 Jun 15:43:53 15:47:05 52° 205° (SSW) 15:50:17 145.825
AO-7 26 Jun 15:47:30 15:55:51 84° 68° (ENE) 16:04:17 29.400- 29.500
ITUPSAT 1 26 Jun 15:47:31 15:52:20 61° 102° (ESE) 15:57:05 437.325
BEESAT 26 Jun 15:48:06 15:52:54 63° 102° (ESE) 15:57:38 436.000
YUBILEINY 26 Jun 15:50:55 15:58:30 32° 299° (WNW) 16:06:11 435.215
AIST 2 26 Jun 15:58:42 16:01:33 18° 246° (WSW) 16:04:24 435.215
TISAT 1 26 Jun 16:05:58 16:09:04 20° 299° (WNW) 16:12:10 437.305
HORYU 2 26 Jun 16:07:41 16:11:08 23° 61° (ENE) 16:14:37 437.375
RS-15 26 Jun 16:21:34 16:32:50 46° 340° (NNW) 16:44:34 29.354- 29.394
Cosmos 2504 26 Jun 16:31:28 16:39:18 46° 292° (WNW) 16:47:40 435.465 / 435.565
MOZHAYETS 4 26 Jun 16:48:21 16:52:36 34° 96° (E) 16:56:48
NOAA 15 26 Jun 16:58:46 17:02:38 21° 56° (ENE) 17:06:29 137.62
SWISSCUBE 26 Jun 17:00:41 17:04:52 30° 297° (WNW) 17:09:02 437.505
NOAA 18 26 Jun 17:03:03 17:06:58 20° 54° (NE) 17:10:54 137.9125
BRITE-PL 26 Jun 17:08:32 17:11:59 19° 61° (ENE) 17:15:15 437.365/2234.400
KKS-1 26 Jun 17:15:00 17:19:25 62° 102° (ESE) 17:23:49 437.445
ISS 26 Jun 17:21:35 17:22:57 12° 223° (SW) 17:24:19 145.825
SO-50 26 Jun 17:25:34 17:30:19 52° 123° (ESE) 17:35:03 436.795
ITUPSAT 1 26 Jun 17:26:06 17:29:46 22° 301° (WNW) 17:33:26 437.325
BEESAT 26 Jun 17:26:40 17:30:16 21° 301° (WNW) 17:33:51 436.000
Cubesat XI-IV 26 Jun 17:26:55 17:31:13 25° 59° (ENE) 17:35:34 437.490
Cosmos 2499 26 Jun 17:37:10 17:38:02 10° 64° (ENE) 17:38:55 435.465 / 435.565
AO-7 26 Jun 17:42:54 17:49:36 26° 269° (W) 17:56:22 29.400- 29.500
HORYU 2 26 Jun 17:43:06 17:47:25 50° 260° (W) 17:51:47 437.375
HO-68 26 Jun 17:48:43 17:52:10 14° 39° (NE) 17:55:37 435.675
AIST 1 26 Jun 17:49:24 17:53:30 43° 93° (E) 17:57:36
STARS 26 Jun 17:53:29 17:57:55 79° 106° (ESE) 18:02:19 437.465
GOMX 1 26 Jun 17:53:55 17:57:20 22° 63° (ENE) 18:00:38 467.674
GONETS M04 26 Jun 17:56:11 18:02:26 23° 76° (ENE) 18:08:41
CUTE-I 26 Jun 18:01:03 18:06:06 44° 66° (ENE) 18:11:12 437.470
CUBESAT XI-V 26 Jun 18:09:45 18:13:49 29° 94° (E) 18:17:50 437.345
CUSAT 1 26 Jun 18:23:53 18:27:22 22° 60° (ENE) 18:30:13 437.405
DANDE 26 Jun 18:25:00 18:28:44 17° 50° (NE) 18:31:54 436.750
MOZHAYETS 4 26 Jun 18:25:33 18:29:46 34° 295° (WNW) 18:33:56
LilacSat-2 26 Jun 18:30:53 18:34:37 63° 74° (ENE) 18:38:25 437.200
Cosmos 2504 26 Jun 18:31:40 18:35:32 13° 319° (NW) 18:39:29 435.465 / 435.565
NOAA 15 26 Jun 18:36:35 18:41:53 76° 256° (WSW) 18:47:12 137.62
RS-15 26 Jun 18:37:26 18:48:49 43° 13° (NNE) 19:00:26 29.354- 29.394
NOAA 18 26 Jun 18:41:32 18:47:00 83° 254° (WSW) 18:52:33 137.9125
CINEMA 3 26 Jun 18:43:47 18:44:01 10° 54° (NE) 18:44:15 145.822/145.860
BRITE-PL 26 Jun 18:45:02 18:50:06 70° 258° (WSW) 18:54:46 437.365/2234.400
KKS-1 26 Jun 18:52:26 18:55:35 19° 301° (WNW) 18:58:44 437.445
CUTE 1.7 + AOD 2 26 Jun 18:58:11 19:00:13 13° 57° (ENE) 19:02:16 437.475
DOVE 4 26 Jun 19:04:42 19:08:48 44° 70° (ENE) 19:12:47 437.250
Cubesat XI-IV 26 Jun 19:05:38 19:10:56 61° 258° (WSW) 19:16:17 437.490
SO-50 26 Jun 19:06:30 19:11:01 36° 324° (NW) 19:15:30 436.795
SEEDS 26 Jun 19:06:46 19:08:24 12° 56° (NE) 19:10:02 437.485
Cosmos 2499 26 Jun 19:20:54 19:28:46 47° 87° (E) 19:37:03 435.465 / 435.565
AIST 1 26 Jun 19:27:55 19:31:19 22° 293° (WNW) 19:34:44
GOMX 1 26 Jun 19:30:41 19:35:12 52° 260° (W) 19:39:28 467.674
STARS 26 Jun 19:31:06 19:33:44 16° 303° (WNW) 19:36:21 437.465
HO-68 26 Jun 19:31:28 19:38:15 48° 61° (ENE) 19:45:05 435.675
CUTE-I 26 Jun 19:41:32 19:46:18 32° 265° (W) 19:51:07 437.470
CUBESAT XI-V 26 Jun 19:46:59 19:51:18 38° 293° (WNW) 19:55:34 437.345
UWE-3 26 Jun 19:47:14 19:48:21 11° 54° (NE) 19:49:29 435.000/436.395/437.385
GONETS M04 26 Jun 19:49:20 19:58:04 89° 94° (E) 20:06:49
AAUSAT CUBESAT 2 26 Jun 19:50:49 19:53:40 18° 60° (ENE) 19:56:32 437.432
AUBIESAT-1 26 Jun 19:52:06 19:53:54 14° 54° (NE) 19:55:43 437.475
CUSAT 1 26 Jun 20:05:51 20:09:38 31° 270° (W) 20:12:38 437.405
DANDE 26 Jun 20:07:00 20:12:51 86° 259° (W) 20:17:06 436.750
LilacSat-2 26 Jun 20:07:35 20:09:22 13° 272° (W) 20:11:11 437.200
CANX-2 26 Jun 20:10:43 20:14:58 64° 73° (ENE) 20:19:16 2200.000
STRAND 1 26 Jun 20:13:56 20:18:44 37° 96° (E) 20:23:29 437.568
CINEMA 3 26 Jun 20:16:16 20:20:23 71° 74° (ENE) 20:24:33 145.822/145.860
NOAA 15 26 Jun 20:20:27 20:22:34 12° 275° (W) 20:24:42 137.62
COMPASS 1 26 Jun 20:21:22 20:25:18 40° 69° (ENE) 20:29:16 437.405
NOAA 18 26 Jun 20:25:41 20:28:32 14° 274° (W) 20:31:25 137.9125
M-CUBED/EXP-1 PRIME 26 Jun 20:28:03 20:31:05 37° 63° (ENE) 20:34:10 437.505
CUBEBUG 2 26 Jun 20:28:24 20:32:08 32° 66° (ENE) 20:35:58 437.445
CUTE 1.7 + AOD 2 26 Jun 20:31:08 20:35:25 89° 78° (ENE) 20:39:46 437.475
SEEDS 26 Jun 20:39:08 20:43:22 80° 76° (ENE) 20:47:41 437.485
DOVE 4 26 Jun 20:43:24 20:46:44 22° 267° (W) 20:50:00 437.250
SO-50 26 Jun 20:49:48 20:52:51 16° 347° (NNW) 20:55:51 436.795
RS-15 26 Jun 20:51:17 21:03:37 75° 44° (NE) 21:15:59 29.354- 29.394
HUMSAT D 26 Jun 21:03:04 21:04:20 11° 55° (NE) 21:05:36 437.325/437.525
ZACube-1 26 Jun 21:04:02 21:07:54 36° 67° (ENE) 21:11:51 437.345
Cosmos 2499 26 Jun 21:13:48 21:21:54 50° 291° (WNW) 21:30:28 435.465 / 435.565
Oscar 11 26 Jun 21:17:47 21:22:00 53° 71° (ENE) 21:26:16 145.826/435.025
HO-68 26 Jun 21:19:19 21:26:04 44° 262° (W) 21:32:54 435.675
UWE-3 26 Jun 21:19:50 21:24:00 73° 74° (ENE) 21:28:19 435.000/436.395/437.385
FUNcube-1 26 Jun 21:22:33 21:26:37 50° 70° (ENE) 21:30:49 145.935
AAUSAT CUBESAT 2 26 Jun 21:24:36 21:28:46 60° 260° (W) 21:32:57 437.432
AUBIESAT-1 26 Jun 21:24:49 21:28:04 54° 253° (WSW) 21:31:21 437.475
CANX-2 26 Jun 21:48:37 21:51:16 16° 271° (W) 21:53:57 2200.000
GONETS M04 26 Jun 21:49:09 21:56:10 26° 303° (WNW) 22:03:12
DANDE 26 Jun 21:52:18 21:54:11 12° 286° (WNW) 21:55:54 436.750
STRAND 1 26 Jun 21:53:11 21:57:55 37° 296° (WNW) 22:02:37 437.568
DELFI C3 26 Jun 21:54:00 21:57:58 58° 72° (ENE) 22:01:58 145.870
CINEMA 3 26 Jun 21:56:04 21:58:05 13° 273° (W) 22:00:07 145.822/145.860
COMPASS 1 26 Jun 21:57:33 22:01:01 24° 267° (W) 22:04:30 437.405
YUBILEINY 26 Jun 22:01:17 22:05:20 14° 42° (NE) 22:09:23 435.215
M-CUBED/EXP-1 PRIME 26 Jun 22:03:45 22:05:53 16° 261° (W) 22:08:02 437.505
CUBEBUG 2 26 Jun 22:05:09 22:08:48 29° 265° (W) 22:12:33 437.445
PRISM 26 Jun 22:09:51 22:13:59 80° 104° (ESE) 22:18:04 437.425
CUTE 1.7 + AOD 2 26 Jun 22:10:31 22:11:55 11° 274° (W) 22:13:20 437.475
SEEDS 26 Jun 22:17:47 22:19:40 13° 273° (W) 22:21:33 437.485
UNISAT 6 26 Jun 22:22:46 22:24:13 11° 85° (E) 22:25:39 437.425
SO-50 26 Jun 22:32:12 22:35:10 16° 12° (NNE) 22:38:06 436.795
HUMSAT D 26 Jun 22:35:02 22:39:12 76° 74° (ENE) 22:43:27 437.325/437.525
DX 1 26 Jun 22:35:49 22:37:18 12° 54° (NE) 22:38:47 434.975-435.025
ZACube-1 26 Jun 22:40:40 22:44:17 27° 267° (W) 22:47:58 437.345
